Miscellaneous Local Product
Issued by NWS Hastings, NE

Home | Current Version | Previous Version | Graphics & Text | Print | Product List | Glossary On
Versions: 1 2 3 4 5 6 7 8 9 10 11 12 13 14 15 16 17 18 19 20 21 22 23 24 25 26 27 28 29 30 31 32 33 34 35 36 37 38 39 40 41 42 43 44 45 46 47 48 49 50
000
AXUS43 KGID 300702
MISGRI

GID CWA HOURLY WEATHER ROUNDUP
NATIONAL WEATHER SERVICE HASTINGS NE
200 AM CDT TUE JUN 30 2015

NOTE: "FAIR" INDICATES FEW OR NO CLOUDS BELOW 12,000 FEET WITH NO
SIGNIFICANT WEATHER AND/OR OBSTRUCTIONS TO VISIBILITY.

...SOUTH CENTRAL NEBRASKA...

CITY           SKY/WX    TMP DP  RH WIND       PRES   REMARKS
GRAND ISLAND   CLEAR     68  60  75 CALM      30.00R
HASTINGS       CLEAR     67  61  81 CALM      30.00R
KEARNEY        CLEAR     66  61  82 CALM      30.01S
ORD            CLEAR     61  58  90 CALM      29.99S
YORK           CLEAR     64  63  94 CALM      29.98S
AURORA         CLEAR     66  62  87 S3        29.99S
LEXINGTON      CLEAR     65  62  89 CALM      30.03F
HOLDREGE       CLEAR     69  59  69 SW5       30.02S
HEBRON         CLEAR     66  62  86 CALM      29.97S

...NEBRASKA PANHANDLE...

CITY           SKY/WX    TMP DP  RH WIND       PRES   REMARKS
CHADRON        PTCLDY    62  59  90 W3        30.05F
ALLIANCE       CLEAR     58  56  93 W5        30.10F
SCOTTSBLUFF    CLEAR     65  56  72 E5        30.11F
SIDNEY         CLEAR     64  57  78 S5        30.14F

...WESTERN AND NORTH CENTRAL NEBRASKA...

CITY           SKY/WX    TMP DP  RH WIND       PRES   REMARKS
VALENTINE      CLEAR     65  61  87 SW5       30.00F
AINSWORTH      CLEAR     65  59  80 SW7       30.01F
ONEILL         CLEAR     67  63  86 SW6       29.98S
BROKEN BOW     CLEAR     63  59  87 N3        30.02F
IMPERIAL       CLEAR     64  58  80 CALM      30.07F
NORTH PLATTE   CLEAR     65  61  87 NE5       30.05F
MCCOOK         CLEAR     73  58  59 SW6       30.04S

...EASTERN NEBRASKA...

CITY           SKY/WX    TMP DP  RH WIND       PRES   REMARKS
NORFOLK        CLEAR     65  61  87 CALM      29.94F
SO SIOUX CITY  CLEAR     65  60  84 N3        29.91S
TEKAMAH        MOCLDY    65  60  84 W3        29.91S
COLUMBUS       CLEAR     63  57  82 W3        29.97R
ALBION         CLEAR     62  57  86 CALM      29.98S
OMAHA EPPLEY   CLOUDY    69  63  81 SE3       29.92S
OFFUTT AFB     FOG       63  61  94 CALM      29.92R VSB 1
MILLARD        CLEAR     67  64  92 CALM      29.93R
LINCOLN        CLEAR     67  63  87 CALM      29.95S
NEBRASKA CITY  CLEAR     68  60  74 W7        29.94S
BEATRICE       CLEAR     67  64  91 CALM      29.95F
FALLS CITY     CLEAR     68  65  90 CALM      29.92S

...NORTHERN KANSAS...

CITY           SKY/WX    TMP DP  RH WIND       PRES   REMARKS
GOODLAND       CLEAR     66  55  67 SW9       30.10F
HILL CITY      CLEAR     66  54  65 CALM      30.03R
NORTON         SUNNY     68  55  64 CALM      30.03R
PHILLIPSBURG   CLEAR     70  61  73 CALM      30.01S
SMITH CENTER   PTCLDY    68  59  73 CALM      30.01S
HAYS           CLEAR     66  50  55 NW3       30.02R
RUSSELL        CLEAR     70  58  65 SE10      30.00R
CONCORDIA      CLEAR     71  58  63 S8        29.98R
SALINA         CLEAR     70  59  68 S3        29.99R
TOPEKA         CLEAR     70  67  90 CALM      29.94S



USA.gov is the U.S. government's official web portal to all federal, state and local government web resources and services.